Regional Weather Roundup
Issued by NWS

Home | Current Version | Previous Version | Graphics & Text | Print | Product List | Glossary Off
Versions: 1 2 3 4 5 6 7 8 9 10 11 12 13 14 15 16 17 18 19 20 21 22 23 24 25 26 27 28 29 30 31 32 33 34 35 36 37 38 39 40 41 42 43 44 45 46 47 48 49 50

000
ASUS43 KLSX 201159
RWRMO

WEATHER SUMMARY FOR MISSOURI
NATIONAL WEATHER SERVICE SPRINGFIELD MO
700 AM CDT WED AUG 20 2014

NOTE: "FAIR" INDICATES FEW OR NO CLOUDS BELOW 12,000 FEET WITH NO
       SIGNIFICANT WEATHER AND/OR OBSTRUCTIONS TO VISIBILITY.
       CURRENT SKY AND/OR WEATHER CONDITIONS ARE NOT AVAILABLE FOR
       CHILLICOTHE AND FARMINGTON.

MOZ001>031-035>038-043-044-053-054-201300-
...NORTHERN AND WESTERN MISSOURI...

CITY           SKY/WX    TMP DP  RH WIND       PRES   REMARKS
KANSAS CTY INT MOCLDY    73  69  87 S6        29.86R
6HR MIN TEMP:  73; 6HR MAX TEMP:  77;

KANSAS C DTWN  PTCLDY    80  68  66 SW7       29.85R
6HR MIN TEMP:  80; 6HR MAX TEMP:  84;

LEE`S SUMMIT   PTCLDY    76  70  82 S6        29.88R
6HR MIN TEMP:  74; 6HR MAX TEMP:  80;

ST JOSEPH      CLOUDY    74  70  87 S7        29.83R
6HR MIN TEMP:  72; 6HR MAX TEMP:  76;

KIRKSVILLE     CLOUDY    72  70  93 S6        29.86R
6HR MIN TEMP:  69; 6HR MAX TEMP:  73;


$$
MOZ066>068-077>081-088>096-101>105-201300-
...SOUTHWEST MISSOURI...

CITY           SKY/WX    TMP DP  RH WIND       PRES   REMARKS
SPRINGFIELD    CLEAR     72  68  87 S6        29.94R
6HR MIN TEMP:  71; 6HR MAX TEMP:  79;

JOPLIN         CLEAR     74  70  87 S8        29.92R
6HR MIN TEMP:  73; 6HR MAX TEMP:  81;


$$
MOZ032>034-039>042-045>050-055>058-069>072-201300-
...CENTRAL MISSOURI...

CITY           SKY/WX    TMP DP  RH WIND       PRES   REMARKS
COLUMBIA       MOCLDY    71  69  93 S6        29.89R
6HR MIN TEMP:  70; 6HR MAX TEMP:  74;

JEFFERSON CITY PTCLDY    71  69  93 CALM      29.88R
6HR MIN TEMP:  70; 6HR MAX TEMP:  74;

ROLLA          CLEAR     73  67  81 SW6       29.91R
6HR MIN TEMP:  70; 6HR MAX TEMP:  76;

SEDALIA        MOCLDY    75  70  84 SW8       29.89R
6HR MIN TEMP:  74; 6HR MAX TEMP:  77;

OSAGE BEACH    PTCLDY    72  68  88 SW3       29.91R

$$
MOZ051-052-059>065-201300-
...EAST CENTRAL MISSOURI...

CITY           SKY/WX    TMP DP  RH WIND       PRES   REMARKS
ST LOUIS INTL  MOCLDY    77  70  79 CALM      29.90R
6HR MIN TEMP:  75; 6HR MAX TEMP:  77;

SPIRIT OF STL  PTCLDY    70  69  97 CALM      29.88R
6HR MIN TEMP:  68; 6HR MAX TEMP:  71; 6HR PCP:  0.01;

ST CHARLES     MOCLDY    71  69  93 CALM      29.88R FOG
6HR MIN TEMP:  68; 6HR MAX TEMP:  72; 6HR PCP:  0.01;


$$
MOZ072>076-082>087-097>100-106>115-201300-
...SOUTH CENTRAL AND SOUTHEAST MISSOURI...

CITY           SKY/WX    TMP DP  RH WIND       PRES   REMARKS
CAPE GIRARDEAU CLEAR     70  68  93 S3        29.90R
6HR MIN TEMP:  67; 6HR MAX TEMP:  70;

FARMINGTON     PTCLDY    72  66  83 CALM      29.93S
6HR MIN TEMP:  70; 6HR MAX TEMP:  75;

POPLAR BLUFF   CLEAR     72  68  87 SW5       29.91R
6HR MIN TEMP:  71; 6HR MAX TEMP:  79;

WEST PLAINS    CLEAR     71  69  93 W3        29.96R
6HR MIN TEMP:  71; 6HR MAX TEMP:  77;


$$



USA.gov is the U.S. government's official web portal to all federal, state and local government web resources and services.